Location: Argonnex
(45.9500°N, 6.1333°E)
Time: 17:32:42
(UTC+00:00)

Meteor 1-11 - Pass Details

Date: 28 January 2023
Orbit: 839 x 888 km, 81.2° (Epoch: 29 March)

Event Time Altitude Azimuth Distance (km) Brightness Sun altitude
Rises 18:34:36 0° 183° (S) 3,478 7.5 -20.8°
Reaches altitude 10° 18:37:02 10° 181° (S) 2,544 6.7 -21.3°
Maximum altitude 18:42:49 74° 98° (E) 925 4.2 -22.3°
Drops below altitude 10° 18:48:38 10° 14° (NNE) 2,557 6.5 -23.3°
Sets 18:51:05 0° 13° (NNE) 3,496 7.3 -23.7°
